Regional Weather Roundup
Issued by NWS Sioux Falls, SD

Home | Current Version | Previous Version | Text Only | Print | Product List | Glossary On
Versions: 1 2 3 4 5 6 7 8 9 10 11 12 13 14 15 16 17 18 19 20 21 22 23 24 25 26 27 28 29 30 31 32 33 34 35 36 37 38 39 40 41 42 43 44 45 46 47 48 49 50
812
ASUS43 KFSD 281910
RWRFSD

WEATHER ROUNDUP FOR SE SOUTH DAKOTA/SW MINNESOTA/NW IOWA
NATIONAL WEATHER SERVICE SIOUX FALLS SD
200 PM CDT TUE MAR 28 2017

NOTE: "FAIR" INDICATES FEW OR NO CLOUDS BELOW 12,000 FEET WITH NO
SIGNIFICANT WEATHER AND OR OBSTRUCTIONS TO VISIBILITY.


SDZ038>040-050-052>070-282000-
SOUTHEAST SOUTH DAKOTA

CITY           SKY/WX    TMP DP  RH WIND       PRES   REMARKS
BROOKINGS      CLOUDY    55  38  52 S7        30.13
CHAMBERLAIN    CLOUDY    60  40  46 CALM      30.09F
HURON          CLOUDY    56  39  53 VRB5      30.13F
MADISON        FAIR      55  41  58 SE7       30.13F
MITCHELL       SUNNY     58  37  45 MISG      30.12F
SIOUX FALLS    CLOUDY    60  38  43 NE9       30.12F
WINNER         LGT RAIN  51  46  83 E8        30.07F
YANKTON        MOSUNNY   55  39  54 E9        30.09F
$$

MNZ071-072-080-081-089-090-097-098-282000-
SOUTHWEST MINNESOTA

CITY           SKY/WX    TMP DP  RH WIND       PRES   REMARKS
FAIRMONT       SUNNY     56  40  55 E12       30.15S
JACKSON          N/A     57  36  44 E8        30.14F
LUVERNE        CLOUDY    55  32  41 E7        30.13F
MARSHALL       MOSUNNY   58  36  43 E5        30.15S
MONTEVIDEO     MOSUNNY   61  37  41 CALM      30.17F
PIPESTONE      CLOUDY    57  30  35 SE6       30.13F
REDWOOD FALLS  SUNNY     62  36  37 VRB3      30.14F
TRACY          MOSUNNY   60  39  46 E5        30.15S
WINDOM         SUNNY     57  36  44 NE12      30.14F
WORTHINGTON    PTSUNNY   56  38  50 E10       30.13F
$$

IAZ001>003-012>014-020>022-031-032-NEZ013-014-SDZ071-282000-
NORTHWEST IOWA

CITY           SKY/WX    TMP DP  RH WIND       PRES   REMARKS
CHEROKEE       SUNNY     58  37  45 NE12      30.11F
DENISON        CLOUDY    50  43  76 E8        30.12F
ESTHERVILLE    SUNNY     55  38  52 E8        30.13F
LE MARS        SUNNY     59  37  44 E10G16    30.11F
ORANGE CITY    MOSUNNY   57  39  51 NE6G21    30.11F
SHELDON        SUNNY     57  37  47 E13G18    30.10F
SIOUX CITY     MOSUNNY   59  40  49 SE10      30.09F
SPENCER        SUNNY     59  35  40 E14G24    30.12F
STORM LAKE     SUNNY     55  37  50 E14G21    30.10F
$$

ABBREVIATIONS USED IN REMARKS
   TC - TEMPERATURE IN CELSIUS
  WCI - WIND CHILL INDEX
   HX - HEAT INDEX
  VSB - VISIBILITY





USA.gov is the U.S. government's official web portal to all federal, state and local government web resources and services.